Showing default

LEGION 6, 62901

Orbit data source: Space-Track

LEGION 6, 62901 is a payload satellite owned by Maxar Intel (US) in LEO that was launched on Tue, 04 Feb 2025 UTC via an FALCON 9 launch vehicle from the Air Force Eastern Test Range (AFETR). Payload-class satellites include a variety of spacecraft equipped with specific instruments for various scientific and technological missions. These include communications satellites like Starlink; space stations such as the ISS; scientific satellites like the Hubble; Earth observation satellites from companies like Planet Labs, Umbra, and HawkEye 360; GPS; miniature CubeSats for education and research; and military/defense satellites.

Loading next visibility...
Identifier
62901, 2025-025B
Orbit
LEO
Country
Flag of USUS
Related business
Manufacturer
Maxar Space Inf
Mission
Operational Commercial Imaging
Bus & Motor
LEGION, Unknown motor
Mass
~700 kg wet, 630 kg dry
Launch date (UTC)
2025-02-04 (9 months ago)
Launch vehicle
FALCON 9
Launch site
Air Force Eastern Test Range (AFETR)
Object type
Payload
Rocket body
Debris
Shape & HBR
Box + 1 Pan, 2.3 m
Radar Cross Section
9.079 m², Large (>1 m²)

Expand to show TLE details & history
Last TLE update: 20 hours ago

TLE from 20 hours ago
0 LEGION 6
1 62901U 25025B   25312.34912801  .00008465  00000-0  44674-3 0  9994
2 62901  44.9944 314.4880 0017874 307.0506  52.8737 15.15845350 42128
Epoch: 2025-11-08T08:22Z
TLE epoch observation values (Epoch: 2025-11-08T08:22:44.660Z)
Latitude
-0.00003°
Longitude
141.02187°
Altitude
510.986 km
Speed
7.614 km/s
True Right ascension
20h 57m 57s
True Declination
0° 00' 00"
Sunlit
Object was in daylight at epoch
Visualization orbit readout
Latitude
Unknown
Longitude
Unknown
Altitude
Unknown
Speed
Unknown
Apparent Right ascension
Unknown
Apparent Declination
Unknown
Sunlit
N/A
Visualization observer readout
Local Sidereal Time
00:42:17
Azimuth
Unknown
Elevation
Unknown
Doppler factor
Unknown
Orbital elements
Apogee altitude
532.345 km
Perigee altitude
507.686 km
Semi-major axis
6,898.152 km
Eccentricity
0.00179
Inclination
44.9944°
RAAN
314.488°
Arg. of periapsis
307.0506°
True anomaly
53.03723°
Mean anomaly
52.8737°
Eccentric anomaly
52.95544°
Mean motion
3.7883 °/min
Orbital period
95.03 mins
BSTAR
0.00044674
Loading maneuver chart data...
Computing Atmospheric mass density...
Loading historical data...
Loading historical data...
Loading historical data...
Loading historical data...
Loading historical data...
Loading historical data...
Loading historical data...
Other satellites on launch #25 in the year 2025 (2025-02-04 UTC)

Documentation

Showing up to 5 results
|